"Data set title: Gaging station water sample data. Usage: Event based table used with water chemistry collection from 01-Oct-2022 to 30-Sep-2023",,,,,,,,,,,,
,,,,,,,,,,,,,
"Site","Date","RecNum","SiteID","Flag_SiteID","LOGGERID","PROGID","VNOTCH_INST_0_0_01","Flag_VNOTCH_INST_0_0_01","SAMPLE_INST_0_0_01","Flag_SAMPLE_INST_0_0_01","STAGE_INST_0_0_01","Flag_STAGE_INST_0_0_01"
"","yyyy-MM-dd HH:mm:ss","count","","none","none","none","none","none","count","none","ft","none"
"nominal","datetime","nominal","data","code","nominal","nominal","data","code","data","code","data","code"
"GSWS07_119",2022-10-01 00:39:30,2093,107.00,"",119,55521.0,0,"",21,"",0.0410,""
"GSWS07_119",2022-10-01 13:57:30,2094,107.00,"",119,55521.0,0,"",22,"",0.0390,""
"GSWS07_119",2022-10-02 03:15:30,2095,107.00,"",119,55521.0,0,"",23,"",0.0390,""
"GSWS07_119",2022-10-02 16:33:30,2096,107.00,"",119,55521.0,0,"",24,"",0.0390,""
"GSWS07_119",2022-10-03 05:51:30,2097,107.00,"",119,55521.0,0,"",25,"",0.0390,""
"GSWS07_119",2022-10-03 19:09:30,2098,107.00,"",119,55521.0,0,"",26,"",0.0340,""
"GSWS07_119",2022-10-04 08:27:30,2099,107.00,"",119,55521.0,0,"",27,"",0.0390,""
"GSWS07_119",2022-10-04 12:01:00,2100,107.00,"",119,55521.0,0,"",28,"",0.0390,""
"GSWS07_119",2022-10-04 21:45:30,2101,107.00,"",119,55521.0,0,"",29,"",0.0370,""
"GSWS07_119",2022-10-05 11:03:30,2102,107.00,"",119,55521.0,0,"",30,"",0.0370,""
"GSWS07_119",2022-10-06 00:21:30,2103,107.00,"",119,55521.0,0,"",31,"",0.0370,""
"GSWS07_119",2022-10-06 13:39:30,2104,107.00,"",119,55521.0,0,"",32,"",0.0370,""
"GSWS07_119",2022-10-07 02:57:30,2105,107.00,"",119,55521.0,0,"",33,"",0.0410,""
"GSWS07_119",2022-10-07 16:15:30,2106,107.00,"",119,55521.0,0,"",34,"",0.0390,""
"GSWS07_119",2022-10-08 05:33:30,2107,107.00,"",119,55521.0,0,"",35,"",0.0410,""
"GSWS07_119",2022-10-08 18:51:30,2108,107.00,"",119,55521.0,0,"",36,"",0.0380,""
"GSWS07_119",2022-10-09 08:09:30,2109,107.00,"",119,55521.0,0,"",37,"",0.0390,""
"GSWS07_119",2022-10-09 21:27:30,2110,107.00,"",119,55521.0,0,"",38,"",0.0340,""
"GSWS07_119",2022-10-10 10:45:30,2111,107.00,"",119,55521.0,0,"",39,"",0.0360,""
"GSWS07_119",2022-10-11 00:03:30,2112,107.00,"",119,55521.0,0,"",40,"",0.0350,""
"GSWS07_119",2022-10-11 13:21:30,2113,107.00,"",119,55521.0,0,"",41,"",0.0360,""
"GSWS07_119",2022-10-12 02:39:30,2114,107.00,"",119,55521.0,0,"",42,"",0.0360,""
"GSWS07_119",2022-10-12 15:57:30,2115,107.00,"",119,55521.0,0,"",1,"",0.0340,""
"GSWS07_119",2022-10-13 05:15:30,2116,107.00,"",119,55521.0,0,"",2,"",0.0350,""
"GSWS07_119",2022-10-13 18:33:30,2117,107.00,"",119,55521.0,0,"",3,"",0.0340,""
"GSWS07_119",2022-10-14 07:51:30,2118,107.00,"",119,55521.0,0,"",4,"",0.0350,""
"GSWS07_119",2022-10-14 21:09:30,2119,107.00,"",119,55521.0,0,"",5,"",0.0340,""
"GSWS07_119",2022-10-15 10:27:30,2120,107.00,"",119,55521.0,0,"",6,"",0.0350,""
"GSWS07_119",2022-10-15 23:45:30,2121,107.00,"",119,55521.0,0,"",7,"",0.0330,""
"GSWS07_119",2022-10-16 13:03:30,2122,107.00,"",119,55521.0,0,"",8,"",0.0330,""
"GSWS07_119",2022-10-17 02:21:30,2123,107.00,"",119,55521.0,0,"",9,"",0.0340,""
"GSWS07_119",2022-10-17 15:39:30,2124,107.00,"",119,55521.0,0,"",10,"",0.0350,""
"GSWS07_119",2022-10-18 04:57:30,2125,107.00,"",119,55521.0,0,"",11,"",0.0350,""
"GSWS07_119",2022-10-18 18:15:30,2126,107.00,"",119,55521.0,0,"",12,"",0.0340,""
"GSWS07_119",2022-10-19 07:33:30,2127,107.00,"",119,55521.0,0,"",13,"",0.0350,""
"GSWS07_119",2022-10-19 20:51:30,2128,107.00,"",119,55521.0,0,"",14,"",0.0330,""
"GSWS07_119",2022-10-20 10:09:30,2129,107.00,"",119,55521.0,0,"",15,"",0.0340,""
"GSWS07_119",2022-10-20 23:27:30,2130,107.00,"",119,55521.0,0,"",16,"",0.0330,""
"GSWS07_119",2022-10-21 12:45:30,2131,107.00,"",119,55521.0,0,"",17,"",0.0350,""
"GSWS07_119",2022-10-22 02:03:30,2132,107.00,"",119,55521.0,0,"",18,"",0.0890,""
"GSWS07_119",2022-10-22 15:21:30,2133,107.00,"",119,55521.0,0,"",19,"",0.0570,""
"GSWS07_119",2022-10-23 04:39:30,2134,107.00,"",119,55521.0,0,"",20,"",0.0500,""
"GSWS07_119",2022-10-23 17:57:30,2135,107.00,"",119,55521.0,0,"",21,"",0.0450,""
"GSWS07_119",2022-10-24 07:15:30,2136,107.00,"",119,55521.0,0,"",22,"",0.0430,""
"GSWS07_119",2022-10-24 20:33:30,2137,107.00,"",119,55521.0,0,"",23,"",0.0580,""
"GSWS07_119",2022-10-25 09:51:30,2138,107.00,"",119,55521.0,0,"",24,"",0.0470,""
"GSWS07_119",2022-10-25 15:41:15,2139,107.00,"",119,55521.0,0,"",25,"",0.0470,""
"GSWS07_119",2022-10-25 23:09:30,2140,107.00,"",119,55521.0,0,"",26,"",0.1040,""
"GSWS07_119",2022-10-26 12:27:30,2141,107.00,"",119,55521.0,0,"",27,"",0.0640,""
"GSWS07_119",2022-10-27 14:26:00,2142,107.00,"",119,55521.0,0,"",28,"",0.0460,""
"GSWS07_119",2022-10-27 14:26:45,2143,107.00,"",119,55521.0,0,"",29,"",0.0460,""
"GSWS07_119",2022-10-27 15:03:30,2144,107.00,"",119,55521.0,0,"",30,"",0.0450,""
"GSWS07_119",2022-10-28 04:21:30,2145,107.00,"",119,55521.0,0,"",31,"",0.0450,""
"GSWS07_119",2022-10-28 17:39:30,2146,107.00,"",119,55521.0,0,"",32,"",0.0430,""
"GSWS07_119",2022-10-29 06:57:30,2147,107.00,"",119,55521.0,0,"",33,"",0.0420,""
"GSWS07_119",2022-10-29 20:15:30,2148,107.00,"",119,55521.0,0,"",34,"",0.0410,""
"GSWS07_119",2022-10-30 09:33:30,2149,107.00,"",119,55521.0,0,"",35,"",0.0420,""
"GSWS07_119",2022-10-30 22:51:30,2150,107.00,"",119,55521.0,0,"",36,"",0.0410,""
"GSWS07_119",2022-10-31 10:42:15,2151,107.00,"",119,55521.0,0,"",37,"",0.0410,""
"GSWS07_119",2022-10-31 12:09:30,2152,107.00,"",119,55521.0,0,"",1,"",0.0410,""
"GSWS07_119",2022-11-01 01:27:30,2153,107.00,"",119,55521.0,0,"",2,"",0.0560,""
"GSWS07_119",2022-11-01 14:45:30,2154,107.00,"",119,55521.0,0,"",3,"",0.0600,""
"GSWS07_119",2022-11-02 04:03:30,2155,107.00,"",119,55521.0,0,"",4,"",0.0530,""
"GSWS07_119",2022-11-02 17:21:30,2156,107.00,"",119,55521.0,0,"",5,"",0.0490,""
"GSWS07_119",2022-11-03 06:39:30,2157,107.00,"",119,55521.0,0,"",6,"",0.0450,""
"GSWS07_119",2022-11-03 19:57:30,2158,107.00,"",119,55521.0,0,"",7,"",0.0500,""
"GSWS07_119",2022-11-04 09:15:30,2159,107.00,"",119,55521.0,0,"",8,"",0.1410,""
"GSWS07_119",2022-11-04 22:33:30,2160,107.00,"",119,55521.0,0,"",9,"",0.3540,""
"GSWS07_119",2022-11-05 11:51:30,2161,107.00,"",119,55521.0,0,"",10,"",0.2170,""
"GSWS07_119",2022-11-06 01:09:30,2162,107.00,"",119,55521.0,0,"",11,"",0.1460,""
"GSWS07_119",2022-11-06 14:27:30,2163,107.00,"",119,55521.0,0,"",12,"",0.1230,""
"GSWS07_119",2022-11-07 03:45:30,2164,107.00,"",119,55521.0,0,"",13,"",0.1060,""
"GSWS07_119",2022-11-07 17:03:30,2165,107.00,"",119,55521.0,0,"",14,"",0.0950,""
"GSWS07_119",2022-11-08 06:21:30,2166,107.00,"",119,55521.0,0,"",15,"",0.0880,""
"GSWS07_119",2022-11-08 19:39:30,2167,107.00,"",119,55521.0,0,"",16,"",0.0880,""
"GSWS07_119",2022-11-09 08:57:30,2168,107.00,"",119,55521.0,0,"",17,"",0.0790,""
"GSWS07_119",2022-11-09 22:15:30,2169,107.00,"",119,55521.0,0,"",18,"",0.0750,""
"GSWS07_119",2022-11-10 11:33:30,2170,107.00,"",119,55521.0,0,"",19,"",0.0730,""
"GSWS07_119",2022-11-11 00:51:30,2171,107.00,"",119,55521.0,0,"",20,"",0.0720,""
"GSWS07_119",2022-11-11 14:09:30,2172,107.00,"",119,55521.0,0,"",21,"",0.0720,""
"GSWS07_119",2022-11-12 03:27:30,2173,107.00,"",119,55521.0,0,"",22,"",0.0720,""
"GSWS07_119",2022-11-12 16:45:30,2174,107.00,"",119,55521.0,0,"",23,"",0.0720,""
"GSWS07_119",2022-11-13 06:03:30,2175,107.00,"",119,55521.0,0,"",24,"",0.0700,""
"GSWS07_119",2022-11-13 19:21:30,2176,107.00,"",119,55521.0,0,"",25,"",0.0700,""
"GSWS07_119",2022-11-14 08:39:30,2177,107.00,"",119,55521.0,0,"",26,"",0.0690,""
"GSWS07_119",2022-11-14 21:57:30,2178,107.00,"",119,55521.0,0,"",27,"",0.0690,""
"GSWS07_119",2022-11-15 11:15:30,2179,107.00,"",119,55521.0,0,"",28,"",0.0680,""
"GSWS07_119",2022-11-16 00:33:30,2180,107.00,"",119,55521.0,0,"",29,"",0.0680,""
"GSWS07_119",2022-11-16 13:51:30,2181,107.00,"",119,55521.0,0,"",30,"",0.0680,""
"GSWS07_119",2022-11-17 03:09:30,2182,107.00,"",119,55521.0,0,"",31,"",0.0760,""
"GSWS07_119",2022-11-17 16:27:30,2183,107.00,"",119,55521.0,0,"",32,"",0.0780,""
"GSWS07_119",2022-11-18 05:45:30,2184,107.00,"",119,55521.0,0,"",33,"",0.0780,""
"GSWS07_119",2022-11-18 19:03:30,2185,107.00,"",119,55521.0,0,"",34,"",0.0740,""
"GSWS07_119",2022-11-19 08:21:30,2186,107.00,"",119,55521.0,0,"",35,"",0.0710,""
"GSWS07_119",2022-11-19 21:39:30,2187,107.00,"",119,55521.0,0,"",36,"",0.0690,""
"GSWS07_119",2022-11-20 10:57:30,2188,107.00,"",119,55521.0,0,"",37,"",0.0670,""
"GSWS07_119",2022-11-21 00:15:30,2189,107.00,"",119,55521.0,0,"",38,"",0.0660,""
"GSWS07_119",2022-11-21 13:33:30,2190,107.00,"",119,55521.0,0,"",39,"",0.0650,""
"GSWS07_119",2022-11-22 02:51:30,2191,107.00,"",119,55521.0,0,"",1,"",0.0650,""
"GSWS07_119",2022-11-22 16:09:30,2192,107.00,"",119,55521.0,0,"",2,"",0.1120,""
"GSWS07_119",2022-11-23 05:27:30,2193,107.00,"",119,55521.0,0,"",3,"",0.0850,""
"GSWS07_119",2022-11-23 18:45:30,2194,107.00,"",119,55521.0,0,"",4,"",0.0790,""
"GSWS07_119",2022-11-24 08:03:30,2195,107.00,"",119,55521.0,0,"",5,"",0.0740,""
"GSWS07_119",2022-11-24 21:21:30,2196,107.00,"",119,55521.0,0,"",6,"",0.0700,""
"GSWS07_119",2022-11-25 10:39:30,2197,107.00,"",119,55521.0,0,"",7,"",0.0660,""
"GSWS07_119",2022-11-25 23:57:30,2198,107.00,"",119,55521.0,0,"",8,"",0.0700,""
"GSWS07_119",2022-11-26 13:15:30,2199,107.00,"",119,55521.0,0,"",9,"",0.0660,""
"GSWS07_119",2022-11-27 02:33:30,2200,107.00,"",119,55521.0,0,"",10,"",0.0650,""
"GSWS07_119",2022-11-27 15:51:30,2201,107.00,"",119,55521.0,0,"",11,"",0.1020,""
"GSWS07_119",2022-11-28 05:09:30,2202,107.00,"",119,55521.0,0,"",12,"",0.0910,""
"GSWS07_119",2022-11-28 18:27:30,2203,107.00,"",119,55521.0,0,"",13,"",0.0890,""
"GSWS07_119",2022-11-29 07:45:30,2204,107.00,"",119,55521.0,0,"",14,"",0.0850,""
"GSWS07_119",2022-11-29 21:03:30,2205,107.00,"",119,55521.0,0,"",15,"",0.0830,""
"GSWS07_119",2022-11-30 10:21:30,2206,107.00,"",119,55521.0,0,"",16,"",0.0890,""
"GSWS07_119",2022-11-30 23:39:30,2207,107.00,"",119,55521.0,0,"",17,"",0.0860,""
"GSWS07_119",2022-12-01 12:57:30,2208,107.00,"",119,55521.0,0,"",18,"",0.0830,""
"GSWS07_119",2022-12-02 02:15:30,2209,107.00,"",119,55521.0,0,"",19,"",0.0810,""
"GSWS07_119",2022-12-02 15:33:30,2210,107.00,"",119,55521.0,0,"",20,"",0.0790,""
"GSWS07_119",2022-12-03 04:51:30,2211,107.00,"",119,55521.0,0,"",21,"",0.0790,""
"GSWS07_119",2022-12-03 18:09:30,2212,107.00,"",119,55521.0,0,"",22,"",0.0870,""
"GSWS07_119",2022-12-04 07:27:30,2213,107.00,"",119,55521.0,0,"",23,"",0.0830,""
"GSWS07_119",2022-12-04 20:45:30,2214,107.00,"",119,55521.0,0,"",24,"",0.0820,""
"GSWS07_119",2022-12-05 10:03:30,2215,107.00,"",119,55521.0,0,"",25,"",0.0810,""
"GSWS07_119",2022-12-05 23:21:30,2216,107.00,"",119,55521.0,0,"",26,"",0.0820,""
"GSWS07_119",2022-12-06 12:39:30,2217,107.00,"",119,55521.0,0,"",27,"",0.0790,""
"GSWS07_119",2022-12-07 01:57:30,2218,107.00,"",119,55521.0,0,"",28,"",0.0800,""
"GSWS07_119",2022-12-07 15:15:30,2219,107.00,"",119,55521.0,0,"",29,"",0.0800,""
"GSWS07_119",2022-12-08 04:33:30,2220,107.00,"",119,55521.0,0,"",30,"",0.0800,""
"GSWS07_119",2022-12-08 17:51:30,2221,107.00,"",119,55521.0,0,"",31,"",0.0820,""
"GSWS07_119",2022-12-09 07:09:30,2222,107.00,"",119,55521.0,0,"",32,"",0.0810,""
"GSWS07_119",2022-12-09 20:27:30,2223,107.00,"",119,55521.0,0,"",33,"",0.0880,""
"GSWS07_119",2022-12-10 09:45:30,2224,107.00,"",119,55521.0,0,"",34,"",0.1730,""
"GSWS07_119",2022-12-10 23:03:30,2225,107.00,"",119,55521.0,0,"",35,"",0.1830,""
"GSWS07_119",2022-12-11 12:21:30,2226,107.00,"",119,55521.0,0,"",36,"",0.1640,""
"GSWS07_119",2022-12-12 01:39:30,2227,107.00,"",119,55521.0,0,"",37,"",0.1420,""
"GSWS07_119",2022-12-12 14:57:30,2228,107.00,"",119,55521.0,0,"",38,"",0.1290,""
"GSWS07_119",2022-12-13 04:15:30,2229,107.00,"",119,55521.0,0,"",39,"",0.1200,""
"GSWS07_119",2022-12-13 14:50:45,2230,107.00,"",119,55521.0,0,"",1,"",0.1150,""
"GSWS07_119",2022-12-13 17:33:30,2231,107.00,"",119,55521.0,0,"",2,"",0.1140,""
"GSWS07_119",2022-12-14 06:51:30,2232,107.00,"",119,55521.0,0,"",3,"",0.1090,""
"GSWS07_119",2022-12-14 20:09:30,2233,107.00,"",119,55521.0,0,"",4,"",0.1040,""
"GSWS07_119",2022-12-15 09:27:30,2234,107.00,"",119,55521.0,0,"",5,"",0.1010,""
"GSWS07_119",2022-12-15 22:45:30,2235,107.00,"",119,55521.0,0,"",6,"",0.0980,""
"GSWS07_119",2022-12-16 12:03:30,2236,107.00,"",119,55521.0,0,"",7,"",0.0950,""
"GSWS07_119",2022-12-17 01:21:30,2237,107.00,"",119,55521.0,0,"",8,"",0.0940,""
"GSWS07_119",2022-12-17 14:39:30,2238,107.00,"",119,55521.0,0,"",9,"",0.0930,""
"GSWS07_119",2022-12-18 03:57:30,2239,107.00,"",119,55521.0,0,"",10,"",0.0910,""
"GSWS07_119",2022-12-18 17:15:30,2240,107.00,"",119,55521.0,0,"",11,"",0.0890,""
"GSWS07_119",2022-12-19 06:33:30,2241,107.00,"",119,55521.0,0,"",12,"",0.0880,""
"GSWS07_119",2022-12-19 19:51:30,2242,107.00,"",119,55521.0,0,"",13,"",0.0870,""
"GSWS07_119",2022-12-20 09:09:30,2243,107.00,"",119,55521.0,0,"",14,"",0.0870,""
"GSWS07_119",2022-12-20 22:27:30,2244,107.00,"",119,55521.0,0,"",15,"",0.1620,""
"GSWS07_119",2022-12-21 11:45:30,2245,107.00,"",119,55521.0,0,"",16,"",0.1560,""
"GSWS07_119",2022-12-22 01:03:30,2246,107.00,"",119,55521.0,0,"",17,"",0.1460,""
"GSWS07_119",2022-12-22 14:21:30,2247,107.00,"",119,55521.0,0,"",18,"",0.1370,""
"GSWS07_119",2022-12-23 03:39:30,2248,107.00,"",119,55521.0,0,"",19,"",0.1320,""
"GSWS07_119",2022-12-23 16:57:30,2249,107.00,"",119,55521.0,0,"",20,"",0.2000,""
"GSWS07_119",2022-12-24 06:15:30,2250,107.00,"",119,55521.0,0,"",21,"",0.2210,""
"GSWS07_119",2022-12-24 18:16:00,2251,107.00,"",119,55521.0,0,"",22,"",0.3640,""
"GSWS07_119",2022-12-25 00:54:00,2252,107.00,"",119,55521.0,0,"",23,"",0.4010,""
"GSWS07_119",2022-12-25 07:32:00,2253,107.00,"",119,55521.0,0,"",24,"",0.3880,""
"GSWS07_119",2022-12-25 14:10:00,2254,107.00,"",119,55521.0,0,"",25,"",0.4050,""
"GSWS07_119",2022-12-25 20:48:00,2255,107.00,"",119,55521.0,0,"",26,"",0.4150,""
"GSWS07_119",2022-12-26 03:26:00,2256,107.00,"",119,55521.0,0,"",27,"",0.3990,""
"GSWS07_119",2022-12-26 10:04:00,2257,107.00,"",119,55521.0,0,"",28,"",0.3930,""
"GSWS07_119",2022-12-26 16:42:00,2258,107.00,"",119,55521.0,0,"",29,"",0.4030,""
"GSWS07_119",2022-12-26 23:20:00,2259,107.00,"",119,55521.0,0,"",30,"",0.4870,""
"GSWS07_119",2022-12-27 03:46:00,2260,107.00,"",119,55521.0,0,"",31,"",0.5800,""
"GSWS07_119",2022-12-27 07:08:00,2261,107.00,"",119,55521.0,0,"",32,"",0.6200,""
"GSWS07_119",2022-12-27 11:09:30,2262,107.00,"",119,55521.0,0,"",33,"",0.6170,""
"GSWS07_119",2022-12-27 14:31:30,2263,107.00,"",119,55521.0,0,"",34,"",0.6380,""
"GSWS07_119",2022-12-27 17:53:30,2264,107.00,"",119,55521.0,0,"",35,"",0.6360,""
"GSWS07_119",2022-12-27 21:15:30,2265,107.00,"",119,55521.0,0,"",36,"",0.6260,""
"GSWS07_119",2022-12-28 01:41:30,2266,107.00,"",119,55521.0,0,"",37,"",0.5820,""
"GSWS07_119",2022-12-28 06:07:30,2267,107.00,"",119,55521.0,0,"",38,"",0.5480,""
"GSWS07_119",2022-12-28 10:33:30,2268,107.00,"",119,55521.0,0,"",39,"",0.5120,""
"GSWS07_119",2022-12-28 17:11:30,2269,107.00,"",119,55521.0,0,"",40,"",0.4690,""
"GSWS07_119",2022-12-28 23:49:30,2270,107.00,"",119,55521.0,0,"",41,"",0.4270,""
"GSWS07_119",2022-12-29 06:27:30,2271,107.00,"",119,55521.0,0,"",42,"",0.3990,""
"GSWS07_119",2022-12-29 13:05:30,2272,107.00,"",119,55521.0,0,"",43,"",0.3860,""
"GSWS07_119",2022-12-29 19:43:30,2273,107.00,"",119,55521.0,0,"",44,"",0.3870,""
"GSWS07_119",2022-12-30 02:21:30,2274,107.00,"",119,55521.0,0,"",45,"",0.4480,""
"GSWS07_119",2022-12-30 08:59:30,2275,107.00,"",119,55521.0,0,"",46,"",0.4420,""
"GSWS07_119",2022-12-30 15:37:30,2276,107.00,"",119,55521.0,0,"",47,"",0.4410,""
"GSWS07_119",2022-12-30 22:15:30,2277,107.00,"",119,55521.0,0,"",48,"",0.4430,""
"GSWS07_119",2022-12-31 04:53:30,2278,107.00,"",119,55521.0,0,"",49,"",0.4310,""
"GSWS07_119",2022-12-31 11:31:30,2279,107.00,"",119,55521.0,0,"",50,"",0.4140,""
"GSWS07_119",2022-12-31 18:09:30,2280,107.00,"",119,55521.0,0,"",51,"",0.4020,""
"GSWS07_119",2023-01-01 00:47:30,2281,107.00,"",119,55521.0,0,"",52,"",0.3860,""
"GSWS07_119",2023-01-01 07:25:30,2282,107.00,"",119,55521.0,0,"",53,"",0.3740,""
"GSWS07_119",2023-01-01 20:43:30,2283,107.00,"",119,55521.0,0,"",54,"",0.3400,""
"GSWS07_119",2023-01-02 10:01:30,2284,107.00,"",119,55521.0,0,"",55,"",0.3130,""
"GSWS07_119",2023-01-02 23:19:30,2285,107.00,"",119,55521.0,0,"",56,"",0.2880,""
"GSWS07_119",2023-01-03 12:37:30,2286,107.00,"",119,55521.0,0,"",57,"",0.2750,""
"GSWS07_119",2023-01-04 01:55:30,2287,107.00,"",119,55521.0,0,"",58,"",0.2610,""
"GSWS07_119",2023-01-04 10:56:45,2288,107.00,"",119,55521.0,0,"",59,"",0.2490,""
"GSWS07_119",2023-01-04 15:13:30,2289,107.00,"",119,55521.0,0,"",1,"",0.2590,""
"GSWS07_119",2023-01-05 04:31:30,2290,107.00,"",119,55521.0,0,"",2,"",0.2520,""
"GSWS07_119",2023-01-05 17:49:30,2291,107.00,"",119,55521.0,0,"",3,"",0.2460,""
"GSWS07_119",2023-01-06 07:07:30,2292,107.00,"",119,55521.0,0,"",4,"",0.2350,""
"GSWS07_119",2023-01-06 20:25:30,2293,107.00,"",119,55521.0,0,"",5,"",0.2250,""
"GSWS07_119",2023-01-07 09:43:30,2294,107.00,"",119,55521.0,0,"",6,"",0.2250,""
"GSWS07_119",2023-01-07 23:01:30,2295,107.00,"",119,55521.0,0,"",7,"",0.2250,""
"GSWS07_119",2023-01-08 12:19:30,2296,107.00,"",119,55521.0,0,"",8,"",0.2380,""
"GSWS07_119",2023-01-09 01:37:30,2297,107.00,"",119,55521.0,0,"",9,"",0.2350,""
"GSWS07_119",2023-01-09 14:55:30,2298,107.00,"",119,55521.0,0,"",10,"",0.2360,""
"GSWS07_119",2023-01-10 04:13:30,2299,107.00,"",119,55521.0,0,"",11,"",0.2260,""
"GSWS07_119",2023-01-10 17:31:30,2300,107.00,"",119,55521.0,0,"",12,"",0.2180,""
"GSWS07_119",2023-01-11 06:49:30,2301,107.00,"",119,55521.0,0,"",13,"",0.2100,""
"GSWS07_119",2023-01-11 20:07:30,2302,107.00,"",119,55521.0,0,"",14,"",0.2050,""
"GSWS07_119",2023-01-12 09:25:30,2303,107.00,"",119,55521.0,0,"",15,"",0.2060,""
"GSWS07_119",2023-01-12 22:43:30,2304,107.00,"",119,55521.0,0,"",16,"",0.2020,""
"GSWS07_119",2023-01-13 12:01:30,2305,107.00,"",119,55521.0,0,"",17,"",0.1960,""
"GSWS07_119",2023-01-14 01:19:30,2306,107.00,"",119,55521.0,0,"",18,"",0.2000,""
"GSWS07_119",2023-01-14 14:37:30,2307,107.00,"",119,55521.0,0,"",19,"",0.1990,""
"GSWS07_119",2023-01-15 03:55:30,2308,107.00,"",119,55521.0,0,"",20,"",0.1940,""
"GSWS07_119",2023-01-15 17:13:30,2309,107.00,"",119,55521.0,0,"",21,"",0.2040,""
"GSWS07_119",2023-01-16 06:31:30,2310,107.00,"",119,55521.0,0,"",22,"",0.2030,""
"GSWS07_119",2023-01-16 19:49:30,2311,107.00,"",119,55521.0,0,"",23,"",0.1960,""
"GSWS07_119",2023-01-17 09:07:30,2312,107.00,"",119,55521.0,0,"",24,"",0.1880,""
"GSWS07_119",2023-01-17 22:25:30,2313,107.00,"",119,55521.0,0,"",25,"",0.1830,""
"GSWS07_119",2023-01-18 11:43:30,2314,107.00,"",119,55521.0,0,"",26,"",0.1810,""
"GSWS07_119",2023-01-19 01:01:30,2315,107.00,"",119,55521.0,0,"",27,"",0.1790,""
"GSWS07_119",2023-01-19 14:19:30,2316,107.00,"",119,55521.0,0,"",28,"",0.1750,""
"GSWS07_119",2023-01-20 03:37:30,2317,107.00,"",119,55521.0,0,"",29,"",0.1730,""
"GSWS07_119",2023-01-20 16:55:30,2318,107.00,"",119,55521.0,0,"",30,"",0.1710,""
"GSWS07_119",2023-01-21 06:13:30,2319,107.00,"",119,55521.0,0,"",31,"",0.1680,""
"GSWS07_119",2023-01-21 19:31:30,2320,107.00,"",119,55521.0,0,"",32,"",0.1660,""
"GSWS07_119",2023-01-22 08:49:30,2321,107.00,"",119,55521.0,0,"",33,"",0.1640,""
"GSWS07_119",2023-01-22 22:07:30,2322,107.00,"",119,55521.0,0,"",34,"",0.1620,""
"GSWS07_119",2023-01-23 11:25:30,2323,107.00,"",119,55521.0,0,"",35,"",0.1600,""
"GSWS07_119",2023-01-24 00:43:30,2324,107.00,"",119,55521.0,0,"",36,"",0.1580,""
"GSWS07_119",2023-01-24 14:01:30,2325,107.00,"",119,55521.0,0,"",37,"",0.1560,""
"GSWS07_119",2023-01-25 03:19:30,2326,107.00,"",119,55521.0,0,"",38,"",0.1540,""
"GSWS07_119",2023-01-25 15:03:15,2327,107.00,"",119,55521.0,0,"",39,"",0.1500,""
"GSWS07_119",2023-01-25 16:37:30,2328,107.00,"",119,55521.0,0,"",1,"",0.1500,""
"GSWS07_119",2023-01-26 05:55:30,2329,107.00,"",119,55521.0,0,"",2,"",0.1500,""
"GSWS07_119",2023-01-26 19:13:30,2330,107.00,"",119,55521.0,0,"",3,"",0.1490,""
"GSWS07_119",2023-01-27 08:31:30,2331,107.00,"",119,55521.0,0,"",4,"",0.1490,""
"GSWS07_119",2023-01-27 21:49:30,2332,107.00,"",119,55521.0,0,"",5,"",0.1620,""
"GSWS07_119",2023-01-28 11:07:30,2333,107.00,"",119,55521.0,0,"",6,"",0.1620,""
"GSWS07_119",2023-01-29 00:25:30,2334,107.00,"",119,55521.0,0,"",7,"",0.1620,""
"GSWS07_119",2023-01-30 16:19:30,2335,107.00,"",119,55521.0,0,"",8,"",0.1560,""
"GSWS07_119",2023-01-31 05:37:30,2336,107.00,"",119,55521.0,0,"",9,"",0.1530,""
"GSWS07_119",2023-01-31 18:55:30,2337,107.00,"",119,55521.0,0,"",10,"",0.1510,""
"GSWS07_119",2023-02-01 08:13:30,2338,107.00,"",119,55521.0,0,"",11,"",0.1490,""
"GSWS07_119",2023-02-01 21:31:30,2339,107.00,"",119,55521.0,0,"",12,"",0.1480,""
"GSWS07_119",2023-02-02 10:49:30,2340,107.00,"",119,55521.0,0,"",13,"",0.1460,""
"GSWS07_119",2023-02-03 00:07:30,2341,107.00,"",119,55521.0,0,"",14,"",0.1440,""
"GSWS07_119",2023-02-03 13:25:30,2342,107.00,"",119,55521.0,0,"",15,"",0.1430,""
"GSWS07_119",2023-02-04 02:43:30,2343,107.00,"",119,55521.0,0,"",16,"",0.1430,""
"GSWS07_119",2023-02-04 16:01:30,2344,107.00,"",119,55521.0,0,"",17,"",0.1410,""
"GSWS07_119",2023-02-05 05:19:30,2345,107.00,"",119,55521.0,0,"",18,"",0.1450,""
"GSWS07_119",2023-02-05 18:37:30,2346,107.00,"",119,55521.0,0,"",19,"",0.1570,""
"GSWS07_119",2023-02-06 07:55:30,2347,107.00,"",119,55521.0,0,"",20,"",0.1580,""
"GSWS07_119",2023-02-06 21:13:30,2348,107.00,"",119,55521.0,0,"",21,"",0.1580,""
"GSWS07_119",2023-02-07 10:31:30,2349,107.00,"",119,55521.0,0,"",22,"",0.1560,""
"GSWS07_119",2023-02-07 23:49:30,2350,107.00,"",119,55521.0,0,"",23,"",0.1750,""
"GSWS07_119",2023-02-08 13:07:30,2351,107.00,"",119,55521.0,0,"",24,"",0.1770,""
"GSWS07_119",2023-02-09 02:25:30,2352,107.00,"",119,55521.0,0,"",25,"",0.1770,""
"GSWS07_119",2023-02-09 15:43:30,2353,107.00,"",119,55521.0,0,"",26,"",0.1760,""
"GSWS07_119",2023-02-10 05:01:30,2354,107.00,"",119,55521.0,0,"",27,"",0.1730,""
"GSWS07_119",2023-02-10 18:19:30,2355,107.00,"",119,55521.0,0,"",28,"",0.1710,""
"GSWS07_119",2023-02-11 07:37:30,2356,107.00,"",119,55521.0,0,"",29,"",0.1690,""
"GSWS07_119",2023-02-11 20:55:30,2357,107.00,"",119,55521.0,0,"",30,"",0.1640,""
"GSWS07_119",2023-02-12 10:13:30,2358,107.00,"",119,55521.0,0,"",31,"",0.1620,""
"GSWS07_119",2023-02-12 23:31:30,2359,107.00,"",119,55521.0,0,"",32,"",0.1600,""
"GSWS07_119",2023-02-13 12:49:30,2360,107.00,"",119,55521.0,0,"",33,"",0.1600,""
"GSWS07_119",2023-02-14 02:07:30,2361,107.00,"",119,55521.0,0,"",34,"",0.1600,""
"GSWS07_119",2023-02-14 15:25:30,2362,107.00,"",119,55521.0,0,"",35,"",0.1580,""
"GSWS07_119",2023-02-15 04:43:30,2363,107.00,"",119,55521.0,0,"",36,"",0.1550,""
"GSWS07_119",2023-02-15 18:01:30,2364,107.00,"",119,55521.0,0,"",1,"",0.1520,""
"GSWS07_119",2023-02-16 07:19:30,2365,107.00,"",119,55521.0,0,"",2,"",0.1500,""
"GSWS07_119",2023-02-16 20:37:30,2366,107.00,"",119,55521.0,0,"",3,"",0.1500,""
"GSWS07_119",2023-02-17 09:55:30,2367,107.00,"",119,55521.0,0,"",4,"",0.1480,""
"GSWS07_119",2023-02-17 23:13:30,2368,107.00,"",119,55521.0,0,"",5,"",0.1460,""
"GSWS07_119",2023-02-18 12:31:30,2369,107.00,"",119,55521.0,0,"",6,"",0.1460,""
"GSWS07_119",2023-02-19 01:49:30,2370,107.00,"",119,55521.0,0,"",7,"",0.1440,""
"GSWS07_119",2023-02-19 15:07:30,2371,107.00,"",119,55521.0,0,"",8,"",0.1420,""
"GSWS07_119",2023-02-20 04:25:30,2372,107.00,"",119,55521.0,0,"",9,"",0.1410,""
"GSWS07_119",2023-02-20 17:43:30,2373,107.00,"",119,55521.0,0,"",10,"",0.1410,""
"GSWS07_119",2023-02-21 07:01:30,2374,107.00,"",119,55521.0,0,"",11,"",0.1480,""
"GSWS07_119",2023-02-21 20:19:30,2375,107.00,"",119,55521.0,0,"",12,"",0.1500,""
"GSWS07_119",2023-02-22 09:37:30,2376,107.00,"",119,55521.0,0,"",13,"",0.1500,""
"GSWS07_119",2023-02-22 22:55:30,2377,107.00,"",119,55521.0,0,"",14,"",0.1480,""
"GSWS07_119",2023-02-23 12:13:30,2378,107.00,"",119,55521.0,0,"",15,"",0.1480,""